| time (UTC) | temp F | wind direction | speed MPH | gust MPH | rain 1hr in | rain 24hr in | rain mn in | humidity % | barometer mb |
| 20260505121800 | 65 | 251 | 2.0 | 6.0 | 0.00 | 0.00 | 0.00 | 53 | 982.7 |
| 20260505121301 | 64 | 182 | 2.0 | 4.0 | 0.00 | 0.00 | 0.00 | 52 | 982.6 |
| 20260505120802 | 64 | 228 | 1.0 | 3.0 | 0.00 | 0.00 | 0.00 | 49 | 982.6 |
| 20260505120301 | 63 | 241 | 0.0 | 4.0 | 0.00 | 0.00 | 0.00 | 48 | 982.5 |
| 20260505115803 | 62 | 241 | 1.0 | 4.0 | 0.00 | 0.00 | 0.00 | 49 | 982.4 |
| 20260505115301 | 61 | 233 | 2.0 | 4.0 | 0.00 | 0.00 | 0.00 | 47 | 982.5 |
| 20260505114300 | 60 | 244 | 1.0 | 7.0 | 0.00 | 0.00 | 0.00 | 44 | 982.4 |
| 20260505113802 | 60 | 234 | 1.0 | 4.0 | 0.00 | 0.00 | 0.00 | 44 | 982.3 |
| 20260505113302 | 60 | 212 | 2.0 | 7.0 | 0.00 | 0.00 | 0.00 | 44 | 982.3 |
| 20260505112803 | 59 | 171 | 2.0 | 7.0 | 0.00 | 0.00 | 0.00 | 43 | 982.3 |
| 20260505111800 | 59 | 223 | 1.0 | 6.0 | 0.00 | 0.00 | 0.00 | 41 | 982.2 |
| 20260505111258 | 58 | 0 | 2.0 | 6.0 | 0.00 | 0.00 | 0.00 | 40 | 982.1 |
| 20260505110257 | 58 | 0 | 1.0 | 5.0 | 0.00 | 0.00 | 0.00 | 36 | 982.0 |
| 20260505101231 | 58 | 173 | 1.0 | 5.0 | 0.00 | 0.00 | 0.00 | 38 | 981.4 |
| 20260505100730 | 58 | 149 | 1.0 | 3.0 | 0.00 | 0.00 | 0.00 | 39 | 981.4 |
| 20260505100229 | 58 | 134 | 0.0 | 3.0 | 0.00 | 0.00 | 0.00 | 40 | 981.5 |
| 20260505095729 | 58 | 134 | 1.0 | 3.0 | 0.00 | 0.00 | 0.00 | 40 | 981.3 |
| 20260505095228 | 58 | 134 | 1.0 | 3.0 | 0.00 | 0.00 | 0.00 | 41 | 981.3 |
| 20260505094229 | 59 | 178 | 1.0 | 4.0 | 0.00 | 0.00 | 0.00 | 41 | 981.3 |
| 20260505093729 | 59 | 182 | 2.0 | 4.0 | 0.00 | 0.00 | 0.00 | 41 | 981.2 |
| 20260505093234 | 59 | 185 | 2.0 | 4.0 | 0.00 | 0.00 | 0.00 | 41 | 981.2 |
| 20260505092228 | 59 | 243 | 2.0 | 8.0 | 0.00 | 0.00 | 0.00 | 41 | 981.3 |
| 20260505091731 | 59 | 169 | 2.0 | 9.0 | 0.00 | 0.00 | 0.00 | 41 | 981.3 |
| 20260505091231 | 59 | 182 | 2.0 | 9.0 | 0.00 | 0.00 | 0.00 | 41 | 981.2 |
| 20260505090732 | 59 | 171 | 2.0 | 7.0 | 0.00 | 0.00 | 0.00 | 41 | 981.1 |
| 20260505090231 | 59 | 169 | 1.0 | 4.0 | 0.00 | 0.00 | 0.00 | 41 | 981.0 |
| 20260505085731 | 59 | 198 | 1.0 | 5.0 | 0.00 | 0.00 | 0.00 | 41 | 981.0 |
| 20260505085231 | 59 | 131 | 2.0 | 5.0 | 0.00 | 0.00 | 0.00 | 41 | 981.0 |
| 20260505084232 | 59 | 183 | 3.0 | 7.0 | 0.00 | 0.00 | 0.00 | 40 | 981.1 |
| 20260505083730 | 59 | 136 | 2.0 | 7.0 | 0.00 | 0.00 | 0.00 | 41 | 981.1 |
| 20260505082729 | 59 | 176 | 1.0 | 3.0 | 0.00 | 0.00 | 0.00 | 41 | 981.2 |
| 20260505082228 | 60 | 225 | 1.0 | 4.0 | 0.00 | 0.00 | 0.00 | 42 | 981.1 |
| 20260505081730 | 60 | 190 | 2.0 | 4.0 | 0.00 | 0.00 | 0.00 | 43 | 981.1 |
| 20260505081230 | 60 | 161 | 1.0 | 4.0 | 0.00 | 0.00 | 0.00 | 43 | 981.1 |
| 20260505080729 | 60 | 144 | 1.0 | 5.0 | 0.00 | 0.00 | 0.00 | 43 | 981.0 |
| 20260505075729 | 60 | 167 | 2.0 | 5.0 | 0.00 | 0.00 | 0.00 | 44 | 981.0 |
| 20260505075229 | 60 | 180 | 1.0 | 4.0 | 0.00 | 0.00 | 0.00 | 44 | 981.0 |
| 20260505074230 | 60 | 183 | 2.0 | 4.0 | 0.00 | 0.00 | 0.00 | 44 | 980.8 |
| 20260505073730 | 60 | 166 | 2.0 | 3.0 | 0.00 | 0.00 | 0.00 | 43 | 980.8 |
| 20260505073229 | 60 | 219 | 2.0 | 3.0 | 0.00 | 0.00 | 0.00 | 43 | 980.8 |
| 20260505072729 | 60 | 180 | 1.0 | 5.0 | 0.00 | 0.00 | 0.00 | 43 | 980.7 |
| 20260505072230 | 60 | 236 | 2.0 | 5.0 | 0.00 | 0.00 | 0.00 | 43 | 980.7 |
| 20260505071725 | 60 | 190 | 1.0 | 4.0 | 0.00 | 0.00 | 0.00 | 42 | 980.7 |
| 20260505070709 | 60 | 186 | 1.0 | 3.0 | 0.00 | 0.00 | 0.00 | 42 | 980.8 |
| 20260505070209 | 60 | 182 | 1.0 | 4.0 | 0.00 | 0.00 | 0.00 | 42 | 980.8 |
| 20260505065711 | 60 | 194 | 1.0 | 4.0 | 0.00 | 0.00 | 0.00 | 42 | 980.7 |
| 20260505064701 | 60 | 186 | 1.0 | 3.0 | 0.00 | 0.00 | 0.00 | 43 | 980.8 |
| 20260505064201 | 60 | 188 | 1.0 | 3.0 | 0.00 | 0.00 | 0.00 | 43 | 980.8 |
| 20260505063203 | 60 | 173 | 1.0 | 5.0 | 0.00 | 0.00 | 0.00 | 44 | 980.9 |
| 20260505062701 | 60 | 164 | 2.0 | 4.0 | 0.00 | 0.00 | 0.00 | 45 | 981.0 |
| 20260505062200 | 60 | 165 | 1.0 | 5.0 | 0.00 | 0.00 | 0.00 | 46 | 981.0 |
| 20260505061702 | 60 | 165 | 1.0 | 5.0 | 0.00 | 0.00 | 0.00 | 47 | 980.9 |
| 20260505060701 | 60 | 173 | 0.0 | 2.0 | 0.00 | 0.00 | 0.00 | 48 | 981.0 |
| 20260505055703 | 61 | 171 | 0.0 | 2.0 | 0.00 | 0.00 | 0.00 | 49 | 980.9 |
| 20260505055201 | 61 | 171 | 0.0 | 3.0 | 0.00 | 0.00 | 0.00 | 50 | 981.0 |
| 20260505054205 | 61 | 158 | 0.0 | 5.0 | 0.00 | 0.00 | 0.00 | 51 | 980.8 |
| 20260505053702 | 61 | 177 | 1.0 | 5.0 | 0.00 | 0.00 | 0.00 | 51 | 980.9 |
| 20260505052702 | 62 | 227 | 1.0 | 5.0 | 0.00 | 0.00 | 0.00 | 52 | 981.0 |
| 20260505052200 | 61 | 209 | 2.0 | 5.0 | 0.00 | 0.00 | 0.00 | 52 | 981.1 |
| 20260505051701 | 61 | 171 | 2.0 | 5.0 | 0.00 | 0.00 | 0.00 | 52 | 981.1 |
| 20260505051155 | 61 | 184 | 1.0 | 6.0 | 0.00 | 0.00 | 0.00 | 53 | 981.1 |
| 20260505050653 | 61 | 182 | 1.0 | 6.0 | 0.00 | 0.00 | 0.00 | 53 | 981.1 |
| 20260505050157 | 62 | 214 | 0.0 | 6.0 | 0.00 | 0.00 | 0.00 | 54 | 981.0 |
| 20260505041630 | 63 | 198 | 1.0 | 3.0 | 0.00 | 0.00 | 0.00 | 55 | 981.1 |
| 20260505041129 | 64 | 182 | 0.0 | 4.0 | 0.00 | 0.00 | 0.00 | 55 | 980.8 |
| 20260505040629 | 64 | 190 | 1.0 | 4.0 | 0.00 | 0.00 | 0.00 | 55 | 980.8 |
| 20260505040129 | 64 | 184 | 2.0 | 6.0 | 0.00 | 0.00 | 0.00 | 55 | 980.9 |
| 20260505035629 | 64 | 194 | 2.0 | 6.0 | 0.00 | 0.00 | 0.00 | 55 | 980.8 |
| 20260505035129 | 64 | 172 | 2.0 | 5.0 | 0.00 | 0.00 | 0.00 | 55 | 980.9 |
| 20260505034629 | 64 | 178 | 1.0 | 8.0 | 0.00 | 0.00 | 0.00 | 55 | 980.9 |
| 20260505034129 | 64 | 194 | 2.0 | 8.0 | 0.00 | 0.00 | 0.00 | 55 | 980.9 |
| 20260505033628 | 64 | 206 | 1.0 | 6.0 | 0.00 | 0.00 | 0.00 | 55 | 980.9 |
| 20260505033131 | 64 | 180 | 1.0 | 6.0 | 0.00 | 0.00 | 0.00 | 55 | 981.0 |
| 20260505032134 | 64 | 217 | 2.0 | 7.0 | 0.00 | 0.00 | 0.00 | 55 | 980.9 |
| 20260505031626 | 64 | 173 | 2.0 | 5.0 | 0.00 | 0.00 | 0.00 | 54 | 980.8 |
| 20260505031126 | 64 | 173 | 1.0 | 5.0 | 0.00 | 0.00 | 0.00 | 54 | 981.0 |
| 20260505025620 | 64 | 157 | 2.0 | 5.0 | 0.00 | 0.00 | 0.00 | 54 | 981.0 |
| 20260505025115 | 64 | 180 | 2.0 | 4.0 | 0.00 | 0.00 | 0.00 | 54 | 981.0 |
| 20260505024617 | 65 | 173 | 2.0 | 6.0 | 0.00 | 0.00 | 0.00 | 54 | 981.0 |
| 20260505023608 | 65 | 212 | 0.0 | 3.0 | 0.00 | 0.00 | 0.00 | 54 | 981.1 |
| 20260505023107 | 65 | 188 | 1.0 | 5.0 | 0.00 | 0.00 | 0.00 | 54 | 981.0 |
| 20260505022602 | 65 | 181 | 2.0 | 5.0 | 0.00 | 0.00 | 0.00 | 54 | 981.1 |
| 20260505022103 | 65 | 180 | 1.0 | 5.0 | 0.00 | 0.00 | 0.00 | 53 | 981.0 |
| 20260505021603 | 65 | 223 | 0.0 | 5.0 | 0.00 | 0.00 | 0.00 | 53 | 980.9 |
| 20260505021102 | 65 | 176 | 1.0 | 4.0 | 0.00 | 0.00 | 0.00 | 53 | 980.9 |
| 20260505020601 | 66 | 183 | 1.0 | 3.0 | 0.00 | 0.00 | 0.00 | 52 | 980.9 |
| 20260505015602 | 66 | 183 | 2.0 | 8.0 | 0.00 | 0.00 | 0.00 | 51 | 980.8 |
| 20260505015102 | 66 | 188 | 1.0 | 5.0 | 0.00 | 0.00 | 0.00 | 52 | 980.7 |
| 20260505014101 | 67 | 154 | 1.0 | 5.0 | 0.00 | 0.00 | 0.00 | 50 | 980.9 |
| 20260505013603 | 67 | 245 | 2.0 | 5.0 | 0.00 | 0.00 | 0.00 | 51 | 980.8 |
| 20260505013101 | 67 | 183 | 2.0 | 6.0 | 0.00 | 0.00 | 0.00 | 50 | 980.7 |
| 20260505012601 | 67 | 169 | 1.0 | 8.0 | 0.00 | 0.00 | 0.00 | 50 | 980.6 |
| 20260505012101 | 67 | 156 | 2.0 | 8.0 | 0.00 | 0.00 | 0.00 | 50 | 980.6 |
| 20260505011601 | 67 | 193 | 3.0 | 6.0 | 0.00 | 0.00 | 0.00 | 49 | 980.4 |
| 20260505011101 | 67 | 186 | 2.0 | 8.0 | 0.00 | 0.00 | 0.00 | 49 | 980.3 |
| 20260505010600 | 67 | 262 | 3.0 | 8.0 | 0.00 | 0.00 | 0.00 | 49 | 980.4 |
| 20260505005603 | 67 | 174 | 2.0 | 5.0 | 0.00 | 0.00 | 0.00 | 48 | 980.2 |
| 20260505005104 | 67 | 190 | 2.0 | 6.0 | 0.00 | 0.00 | 0.00 | 48 | 980.2 |
| 20260505004601 | 68 | 247 | 2.0 | 6.0 | 0.00 | 0.00 | 0.00 | 48 | 980.1 |
| 20260505003603 | 68 | 155 | 2.0 | 6.0 | 0.00 | 0.00 | 0.00 | 47 | 980.1 |
| 20260505003100 | 68 | 197 | 2.0 | 6.0 | 0.00 | 0.00 | 0.00 | 47 | 980.1 |
| 20260505002602 | 68 | 160 | 2.0 | 6.0 | 0.00 | 0.00 | 0.00 | 47 | 980.0 |
| 20260505002100 | 69 | 159 | 1.0 | 6.0 | 0.00 | 0.00 | 0.00 | 46 | 980.2 |
| 20260505001556 | 69 | 171 | 1.0 | 5.0 | 0.00 | 0.00 | 0.00 | 46 | 980.1 |
| 20260505001048 | 69 | 189 | 2.0 | 5.0 | 0.00 | 0.00 | 0.00 | 46 | 980.1 |
| 20260505000546 | 69 | 114 | 2.0 | 5.0 | 0.00 | 0.00 | 0.00 | 45 | 980.0 |
| 20260505000044 | 69 | 202 | 2.0 | 7.0 | 0.00 | 0.00 | 0.00 | 45 | 980.0 |
| 20260504235042 | 69 | 144 | 2.0 | 8.0 | 0.00 | 0.00 | 0.00 | 44 | 980.0 |
| 20260504234537 | 69 | 144 | 2.0 | 6.0 | 0.00 | 0.00 | 0.00 | 44 | 979.9 |
| 20260504234029 | 70 | 237 | 2.0 | 6.0 | 0.00 | 0.00 | 0.00 | 44 | 979.9 |
| 20260504233529 | 70 | 196 | 2.0 | 6.0 | 0.00 | 0.00 | 0.00 | 43 | 979.9 |
| 20260504233033 | 70 | 150 | 1.0 | 7.0 | 0.00 | 0.00 | 0.00 | 43 | 979.9 |
| 20260504232530 | 71 | 264 | 3.0 | 7.0 | 0.00 | 0.00 | 0.00 | 42 | 979.9 |
| 20260504232030 | 71 | 169 | 1.0 | 8.0 | 0.00 | 0.00 | 0.00 | 43 | 979.9 |
| 20260504231533 | 71 | 126 | 1.0 | 8.0 | 0.00 | 0.00 | 0.00 | 43 | 979.9 |
| 20260504231029 | 71 | 168 | 1.0 | 5.0 | 0.00 | 0.00 | 0.00 | 43 | 979.9 |
| 20260504230030 | 72 | 182 | 2.0 | 4.0 | 0.00 | 0.00 | 0.00 | 41 | 980.0 |
| 20260504225032 | 72 | 153 | 1.0 | 11.0 | 0.00 | 0.00 | 0.00 | 42 | 980.1 |
| 20260504224531 | 72 | 96 | 3.0 | 11.0 | 0.00 | 0.00 | 0.00 | 40 | 980.0 |
| 20260504224029 | 72 | 177 | 2.0 | 7.0 | 0.00 | 0.00 | 0.00 | 41 | 979.9 |
| 20260504223529 | 72 | 169 | 1.0 | 7.0 | 0.00 | 0.00 | 0.00 | 41 | 979.9 |
| 20260504223029 | 72 | 173 | 2.0 | 9.0 | 0.00 | 0.00 | 0.00 | 40 | 979.9 |
| 20260504222530 | 72 | 251 | 2.0 | 9.0 | 0.00 | 0.00 | 0.00 | 41 | 979.9 |
| 20260504222029 | 72 | 199 | 4.0 | 9.0 | 0.00 | 0.00 | 0.00 | 39 | 979.9 |
| 20260504220529 | 72 | 222 | 1.0 | 7.0 | 0.00 | 0.00 | 0.00 | 41 | 980.0 |
| 20260504220030 | 72 | 140 | 2.0 | 7.0 | 0.00 | 0.00 | 0.00 | 40 | 980.0 |
| 20260504215529 | 72 | 232 | 2.0 | 9.0 | 0.00 | 0.00 | 0.00 | 40 | 980.0 |
| 20260504215028 | 73 | 225 | 3.0 | 11.0 | 0.00 | 0.00 | 0.00 | 39 | 980.1 |
| 20260504214530 | 73 | 161 | 2.0 | 11.0 | 0.00 | 0.00 | 0.00 | 39 | 980.0 |
| 20260504214026 | 73 | 192 | 1.0 | 13.0 | 0.00 | 0.00 | 0.00 | 40 | 979.9 |
| 20260504213516 | 73 | 132 | 2.0 | 13.0 | 0.00 | 0.00 | 0.00 | 40 | 980.0 |
| 20260504213014 | 73 | 132 | 2.0 | 10.0 | 0.00 | 0.00 | 0.00 | 39 | 980.0 |
| 20260504212512 | 73 | 169 | 3.0 | 10.0 | 0.00 | 0.00 | 0.00 | 40 | 980.1 |
| 20260504212013 | 73 | 143 | 3.0 | 8.0 | 0.00 | 0.00 | 0.00 | 38 | 980.0 |
| 20260504211508 | 73 | 204 | 4.0 | 8.0 | 0.00 | 0.00 | 0.00 | 38 | 980.0 |
| 20260504210004 | 74 | 54 | 2.0 | 9.0 | 0.00 | 0.00 | 0.00 | 41 | 980.0 |
| 20260504205501 | 74 | 329 | 1.0 | 9.0 | 0.00 | 0.00 | 0.00 | 40 | 980.0 |
| 20260504205001 | 73 | 140 | 3.0 | 7.0 | 0.00 | 0.00 | 0.00 | 38 | 980.0 |
| 20260504204001 | 73 | 247 | 3.0 | 9.0 | 0.00 | 0.00 | 0.00 | 39 | 980.0 |
| 20260504203506 | 74 | 171 | 2.0 | 11.0 | 0.00 | 0.00 | 0.00 | 40 | 980.0 |
| 20260504203006 | 74 | 182 | 2.0 | 11.0 | 0.00 | 0.00 | 0.00 | 39 | 980.0 |
| 20260504202502 | 74 | 58 | 3.0 | 7.0 | 0.00 | 0.00 | 0.00 | 40 | 980.1 |
| 20260504202000 | 75 | 236 | 2.0 | 9.0 | 0.00 | 0.00 | 0.00 | 41 | 980.2 |
| 20260504201503 | 75 | 131 | 1.0 | 9.0 | 0.00 | 0.00 | 0.00 | 41 | 980.3 |
| 20260504200459 | 75 | 171 | 0.0 | 7.0 | 0.00 | 0.00 | 0.00 | 43 | 980.5 |
| 20260504195959 | 74 | 306 | 2.0 | 9.0 | 0.00 | 0.00 | 0.00 | 41 | 980.7 |
| 20260504195459 | 74 | 179 | 2.0 | 11.0 | 0.00 | 0.00 | 0.00 | 41 | 980.6 |
| 20260504194952 | 74 | 165 | 5.0 | 11.0 | 0.00 | 0.00 | 0.00 | 39 | 980.7 |
| 20260504194454 | 75 | 247 | 1.0 | 7.0 | 0.00 | 0.00 | 0.00 | 41 | 980.7 |
| 20260504193950 | 74 | 309 | 2.0 | 12.0 | 0.00 | 0.00 | 0.00 | 41 | 980.7 |
| 20260504193450 | 74 | 236 | 3.0 | 12.0 | 0.00 | 0.00 | 0.00 | 39 | 981.0 |
| 20260504192948 | 74 | 177 | 3.0 | 7.0 | 0.00 | 0.00 | 0.00 | 40 | 981.0 |
| 20260504192447 | 74 | 159 | 1.0 | 10.0 | 0.00 | 0.00 | 0.00 | 42 | 981.1 |
| 20260504191947 | 74 | 190 | 4.0 | 10.0 | 0.00 | 0.00 | 0.00 | 40 | 981.3 |
| 20260504191442 | 74 | 161 | 1.0 | 9.0 | 0.00 | 0.00 | 0.00 | 42 | 981.3 |
| 20260504190942 | 74 | 173 | 2.0 | 9.0 | 0.00 | 0.00 | 0.00 | 41 | 981.4 |
| 20260504190440 | 74 | 178 | 1.0 | 7.0 | 0.00 | 0.00 | 0.00 | 42 | 981.4 |
| 20260504185941 | 74 | 187 | 3.0 | 7.0 | 0.00 | 0.00 | 0.00 | 38 | 981.4 |
| 20260504185438 | 73 | 226 | 2.0 | 8.0 | 0.00 | 0.00 | 0.00 | 43 | 981.5 |
| 20260504184934 | 73 | 220 | 2.0 | 8.0 | 0.00 | 0.00 | 0.00 | 41 | 981.6 |
| 20260504183930 | 72 | 184 | 2.0 | 10.0 | 0.00 | 0.00 | 0.00 | 42 | 982.0 |
| 20260504182929 | 72 | 148 | 2.0 | 8.0 | 0.00 | 0.00 | 0.00 | 41 | 981.9 |
| 20260504182430 | 73 | 200 | 2.0 | 10.0 | 0.00 | 0.00 | 0.00 | 40 | 982.0 |
| 20260504181930 | 72 | 246 | 3.0 | 10.0 | 0.00 | 0.00 | 0.00 | 41 | 982.1 |
| 20260504181429 | 72 | 151 | 2.0 | 8.0 | 0.00 | 0.00 | 0.00 | 41 | 982.2 |
| 20260504180930 | 72 | 211 | 2.0 | 8.0 | 0.00 | 0.00 | 0.00 | 42 | 982.3 |
| 20260504180430 | 71 | 188 | 2.0 | 11.0 | 0.00 | 0.00 | 0.00 | 40 | 982.3 |
| 20260504175932 | 71 | 140 | 5.0 | 11.0 | 0.00 | 0.00 | 0.00 | 40 | 982.5 |
| 20260504175429 | 72 | 245 | 4.0 | 10.0 | 0.00 | 0.00 | 0.00 | 41 | 982.4 |
| 20260504174930 | 72 | 177 | 3.0 | 7.0 | 0.00 | 0.00 | 0.00 | 39 | 982.3 |
| 20260504174429 | 73 | 184 | 3.0 | 7.0 | 0.00 | 0.00 | 0.00 | 40 | 982.5 |
| 20260504173930 | 73 | 130 | 2.0 | 5.0 | 0.00 | 0.00 | 0.00 | 43 | 982.5 |
| 20260504173429 | 73 | 204 | 2.0 | 6.0 | 0.00 | 0.00 | 0.00 | 43 | 982.4 |
| 20260504172929 | 72 | 246 | 2.0 | 6.0 | 0.00 | 0.00 | 0.00 | 42 | 982.6 |
| 20260504172431 | 72 | 312 | 2.0 | 6.0 | 0.00 | 0.00 | 0.00 | 41 | 982.6 |
| 20260504170930 | 71 | 204 | 2.0 | 7.0 | 0.00 | 0.00 | 0.00 | 41 | 982.8 |
| 20260504170431 | 71 | 27 | 2.0 | 9.0 | 0.00 | 0.00 | 0.00 | 42 | 982.7 |
| 20260504160430 | 70 | 184 | 4.0 | 7.0 | 0.00 | 0.00 | 0.00 | 42 | 983.4 |
| 20260504150426 | 67 | 134 | 2.0 | 8.0 | 0.00 | 0.00 | 0.00 | 43 | 983.9 |
| 20260504140902 | 64 | 149 | 2.0 | 5.0 | 0.00 | 0.00 | 0.00 | 44 | 983.9 |
| 20260504140402 | 64 | 221 | 2.0 | 4.0 | 0.00 | 0.00 | 0.00 | 47 | 983.8 |
| 20260504130402 | 58 | 209 | 2.0 | 4.0 | 0.00 | 0.00 | 0.00 | 52 | 984.3 |